Time,TemperatureF,DewpointF,PressureIn,WindDirection,WindDirectionDegrees,WindSpeedMPH,WindSpeedGustMPH,Humidity,HourlyPrecipIn,Conditions,Clouds,dailyrainin,SoftwareType,DateUTC
2013-04-21 00:02:00,54.0,35.0,30.19,SE,135,8.0,11.0,47,-99.99,,,-99.99,,2013-04-21 05:02:00,
2013-04-21 00:12:00,54.0,35.0,30.19,SE,140,6.0,10.0,48,-99.99,,,-99.99,,2013-04-21 05:12:00,
2013-04-21 00:22:00,54.0,35.0,30.19,SE,140,6.0,10.0,48,-99.99,,,-99.99,,2013-04-21 05:22:00,
2013-04-21 00:32:00,53.0,34.0,30.19,SE,135,6.0,9.0,49,-99.99,,,-99.99,,2013-04-21 05:32:00,
2013-04-21 00:42:00,53.0,34.0,30.19,SSE,150,7.0,9.0,49,-99.99,,,-99.99,,2013-04-21 05:42:00,
2013-04-21 00:52:00,53.0,34.0,30.19,SSE,150,7.0,9.0,49,-99.99,,,-99.99,,2013-04-21 05:52:00,
2013-04-21 01:01:00,53.0,35.0,30.19,SE,145,8.0,11.0,51,-99.99,,,-99.99,,2013-04-21 06:01:00,
2013-04-21 01:12:00,53.0,36.0,30.20,SSE,160,10.0,13.0,53,-99.99,,,-99.99,,2013-04-21 06:12:00,
2013-04-21 01:22:00,53.0,36.0,30.20,SSE,160,10.0,13.0,53,-99.99,,,-99.99,,2013-04-21 06:22:00,
2013-04-21 01:32:00,52.0,37.0,30.20,SSE,165,9.0,13.0,56,-99.99,,,-99.99,,2013-04-21 06:32:00,
2013-04-21 01:42:00,52.0,37.0,30.20,South,175,8.0,12.0,57,-99.99,,,-99.99,,2013-04-21 06:42:00,
2013-04-21 01:51:00,52.0,37.0,30.20,South,175,8.0,12.0,57,-99.99,,,-99.99,,2013-04-21 06:51:00,
2013-04-21 02:01:00,51.0,38.0,30.20,SSE,150,9.0,12.0,60,-99.99,,,-99.99,,2013-04-21 07:01:00,
2013-04-21 02:12:00,51.0,38.0,30.20,SSE,160,10.0,14.0,61,-99.99,,,-99.99,,2013-04-21 07:12:00,
2013-04-21 02:21:00,51.0,38.0,30.20,SSE,160,10.0,14.0,61,-99.99,,,-99.99,,2013-04-21 07:21:00,
2013-04-21 02:32:00,51.0,38.0,30.20,SSE,160,10.0,13.0,63,-99.99,,,-99.99,,2013-04-21 07:32:00,
2013-04-21 02:42:00,50.0,39.0,30.20,SSE,155,8.0,13.0,65,-99.99,,,-99.99,,2013-04-21 07:42:00,
2013-04-21 02:52:00,50.0,39.0,30.20,SSE,155,8.0,13.0,65,-99.99,,,-99.99,,2013-04-21 07:52:00,
2013-04-21 03:01:00,50.0,39.0,30.19,SSE,150,9.0,14.0,66,-99.99,,,-99.99,,2013-04-21 08:01:00,
2013-04-21 03:12:00,50.0,39.0,30.20,SSE,165,9.0,17.0,66,-99.99,,,-99.99,,2013-04-21 08:12:00,
2013-04-21 03:21:00,50.0,39.0,30.20,SSE,165,9.0,17.0,66,-99.99,,,-99.99,,2013-04-21 08:21:00,
2013-04-21 03:32:00,50.0,39.0,30.20,South,175,9.0,15.0,66,-99.99,,,-99.99,,2013-04-21 08:32:00,
2013-04-21 03:42:00,51.0,40.0,30.20,South,175,9.0,11.0,66,-99.99,,,-99.99,,2013-04-21 08:42:00,
2013-04-21 03:52:00,51.0,40.0,30.20,South,175,9.0,11.0,66,-99.99,,,-99.99,,2013-04-21 08:52:00,
2013-04-21 04:02:00,50.0,39.0,30.20,SSE,155,9.0,12.0,66,-99.99,,,-99.99,,2013-04-21 09:02:00,
2013-04-21 04:12:00,50.0,39.0,30.20,SSE,155,8.0,14.0,66,-99.99,,,-99.99,,2013-04-21 09:12:00,
2013-04-21 04:21:00,50.0,39.0,30.20,SSE,155,8.0,14.0,66,-99.99,,,-99.99,,2013-04-21 09:21:00,
2013-04-21 04:32:00,50.0,39.0,30.21,South,170,10.0,14.0,65,-99.99,,,-99.99,,2013-04-21 09:32:00,
2013-04-21 04:43:00,50.0,39.0,30.21,South,170,10.0,14.0,65,-99.99,,,-99.99,,2013-04-21 09:43:00,
2013-04-21 04:52:00,50.0,39.0,30.21,South,170,10.0,14.0,65,-99.99,,,-99.99,,2013-04-21 09:52:00,
2013-04-21 05:03:00,51.0,39.0,30.21,South,170,10.0,15.0,64,-99.99,,,-99.99,,2013-04-21 10:03:00,
2013-04-21 05:12:00,50.0,39.0,30.22,South,170,8.0,15.0,64,-99.99,,,-99.99,,2013-04-21 10:12:00,
2013-04-21 05:22:00,50.0,39.0,30.22,South,170,8.0,15.0,64,-99.99,,,-99.99,,2013-04-21 10:22:00,
2013-04-21 05:32:00,50.0,38.0,30.22,South,180,9.0,12.0,64,-99.99,,,-99.99,,2013-04-21 10:32:00,
2013-04-21 05:42:00,50.0,38.0,30.22,South,180,12.0,14.0,63,-99.99,,,-99.99,,2013-04-21 10:42:00,
2013-04-21 05:52:00,50.0,38.0,30.22,South,180,12.0,14.0,63,-99.99,,,-99.99,,2013-04-21 10:52:00,
2013-04-21 06:02:00,50.0,38.0,30.23,South,180,10.0,14.0,63,-99.99,,,-99.99,,2013-04-21 11:02:00,
2013-04-21 06:12:00,50.0,38.0,30.23,South,180,10.0,13.0,62,-99.99,,,-99.99,,2013-04-21 11:12:00,
2013-04-21 06:22:00,50.0,38.0,30.23,South,180,10.0,13.0,62,-99.99,,,-99.99,,2013-04-21 11:22:00,
2013-04-21 06:34:00,50.0,37.0,30.23,South,180,11.0,14.0,62,-99.99,,,-99.99,,2013-04-21 11:34:00,
2013-04-21 06:42:00,49.0,36.0,30.23,South,175,10.0,13.0,61,-99.99,,,-99.99,,2013-04-21 11:42:00,
2013-04-21 06:52:00,49.0,36.0,30.23,South,175,10.0,13.0,61,-99.99,,,-99.99,,2013-04-21 11:52:00,
2013-04-21 07:02:00,49.0,36.0,30.24,South,170,10.0,14.0,61,-99.99,,,-99.99,,2013-04-21 12:02:00,
2013-04-21 07:12:00,49.0,36.0,30.25,South,175,9.0,13.0,61,-99.99,,,-99.99,,2013-04-21 12:12:00,
2013-04-21 07:22:00,49.0,36.0,30.25,South,175,9.0,13.0,61,-99.99,,,-99.99,,2013-04-21 12:22:00,
2013-04-21 07:32:00,49.0,36.0,30.26,South,175,8.0,11.0,62,-99.99,,,-99.99,,2013-04-21 12:32:00,
2013-04-21 07:42:00,49.0,36.0,30.26,SSE,160,9.0,13.0,61,-99.99,,,-99.99,,2013-04-21 12:42:00,
2013-04-21 07:52:00,49.0,36.0,30.26,SSE,160,9.0,13.0,61,-99.99,,,-99.99,,2013-04-21 12:52:00,
2013-04-21 08:01:00,49.0,37.0,30.27,SSE,160,6.0,9.0,63,-99.99,,,-99.99,,2013-04-21 13:01:00,
2013-04-21 08:12:00,49.0,37.0,30.27,SSE,165,6.0,11.0,63,-99.99,,,-99.99,,2013-04-21 13:12:00,
2013-04-21 08:21:00,49.0,37.0,30.27,SSE,165,6.0,11.0,63,-99.99,,,-99.99,,2013-04-21 13:21:00,
2013-04-21 08:32:00,50.0,37.0,30.27,SSE,165,9.0,13.0,61,-99.99,,,-99.99,,2013-04-21 13:32:00,
2013-04-21 08:42:00,50.0,36.0,30.28,South,185,13.0,15.0,59,-99.99,,,-99.99,,2013-04-21 13:42:00,
2013-04-21 08:52:00,50.0,36.0,30.28,South,185,13.0,15.0,59,-99.99,,,-99.99,,2013-04-21 13:52:00,
2013-04-21 09:02:00,51.0,36.0,30.28,South,180,14.0,18.0,57,-99.99,,,-99.99,,2013-04-21 14:02:00,
2013-04-21 09:11:00,52.0,36.0,30.28,South,180,17.0,21.0,55,-99.99,,,-99.99,,2013-04-21 14:11:00,
2013-04-21 09:21:00,52.0,36.0,30.28,South,180,17.0,21.0,55,-99.99,,,-99.99,,2013-04-21 14:21:00,
2013-04-21 09:32:00,53.0,36.0,30.28,South,175,13.0,18.0,53,-99.99,,,-99.99,,2013-04-21 14:32:00,
2013-04-21 09:42:00,54.0,38.0,30.29,South,185,11.0,19.0,54,-99.99,,,-99.99,,2013-04-21 14:42:00,
2013-04-21 09:52:00,54.0,38.0,30.29,South,185,11.0,19.0,54,-99.99,,,-99.99,,2013-04-21 14:52:00,
2013-04-21 10:02:00,55.0,37.0,30.28,South,175,12.0,18.0,51,-99.99,,,-99.99,,2013-04-21 15:02:00,
2013-04-21 10:11:00,55.0,37.0,30.28,SSW,200,18.0,20.0,50,-99.99,,,-99.99,,2013-04-21 15:11:00,
2013-04-21 10:22:00,55.0,37.0,30.28,SSW,200,18.0,20.0,50,-99.99,,,-99.99,,2013-04-21 15:22:00,
2013-04-21 10:33:00,57.0,39.0,30.28,South,190,12.0,19.0,51,-99.99,,,-99.99,,2013-04-21 15:33:00,
2013-04-21 10:43:00,57.0,37.0,30.29,South,170,12.0,18.0,46,-99.99,,,-99.99,,2013-04-21 15:43:00,
2013-04-21 10:53:00,57.0,37.0,30.29,South,170,12.0,18.0,46,-99.99,,,-99.99,,2013-04-21 15:53:00,
2013-04-21 11:03:00,59.0,36.0,30.28,SSW,200,15.0,20.0,43,-99.99,,,-99.99,,2013-04-21 16:03:00,
2013-04-21 11:12:00,59.0,37.0,30.28,South,185,15.0,20.0,43,-99.99,,,-99.99,,2013-04-21 16:12:00,
2013-04-21 11:23:00,59.0,37.0,30.28,South,185,15.0,20.0,43,-99.99,,,-99.99,,2013-04-21 16:23:00,
2013-04-21 11:33:00,61.0,37.0,30.28,South,180,12.0,18.0,41,-99.99,,,-99.99,,2013-04-21 16:33:00,
2013-04-21 11:42:00,61.0,37.0,30.28,SSW,200,16.0,21.0,41,-99.99,,,-99.99,,2013-04-21 16:42:00,
2013-04-21 11:52:00,61.0,37.0,30.28,SSW,200,16.0,21.0,41,-99.99,,,-99.99,,2013-04-21 16:52:00,
2013-04-21 12:02:00,62.0,38.0,30.27,SSE,165,14.0,21.0,41,-99.99,,,-99.99,,2013-04-21 17:02:00,
2013-04-21 12:12:00,62.0,37.0,30.27,SSW,200,14.0,22.0,39,-99.99,,,-99.99,,2013-04-21 17:12:00,
2013-04-21 12:23:00,62.0,37.0,30.27,SSW,200,14.0,22.0,39,-99.99,,,-99.99,,2013-04-21 17:23:00,
2013-04-21 12:32:00,63.0,38.0,30.26,South,190,15.0,23.0,39,-99.99,,,-99.99,,2013-04-21 17:32:00,
2013-04-21 12:42:00,63.0,37.0,30.26,SSW,210,12.0,23.0,38,-99.99,,,-99.99,,2013-04-21 17:42:00,
2013-04-21 12:52:00,63.0,37.0,30.26,SSW,210,12.0,23.0,38,-99.99,,,-99.99,,2013-04-21 17:52:00,
2013-04-21 13:02:00,64.0,37.0,30.25,SSW,210,16.0,21.0,37,-99.99,,,-99.99,,2013-04-21 18:02:00,
2013-04-21 13:11:00,65.0,38.0,30.24,SSW,205,18.0,25.0,37,-99.99,,,-99.99,,2013-04-21 18:11:00,
2013-04-21 13:22:00,65.0,38.0,30.24,SSW,205,18.0,25.0,37,-99.99,,,-99.99,,2013-04-21 18:22:00,
2013-04-21 13:32:00,65.0,39.0,30.24,South,175,13.0,21.0,38,-99.99,,,-99.99,,2013-04-21 18:32:00,
2013-04-21 13:42:00,66.0,39.0,30.23,SSW,195,11.0,21.0,37,-99.99,,,-99.99,,2013-04-21 18:42:00,
2013-04-21 13:52:00,66.0,39.0,30.23,SSW,195,11.0,21.0,37,-99.99,,,-99.99,,2013-04-21 18:52:00,
2013-04-21 14:02:00,66.0,37.0,30.22,SSW,195,15.0,21.0,35,-99.99,,,-99.99,,2013-04-21 19:02:00,
2013-04-21 14:12:00,66.0,38.0,30.22,SSW,205,14.0,23.0,36,-99.99,,,-99.99,,2013-04-21 19:12:00,
2013-04-21 14:21:00,66.0,38.0,30.22,SSW,205,14.0,23.0,36,-99.99,,,-99.99,,2013-04-21 19:21:00,
2013-04-21 14:32:00,67.0,40.0,30.21,SSE,160,15.0,22.0,37,-99.99,,,-99.99,,2013-04-21 19:32:00,
2013-04-21 14:42:00,67.0,37.0,30.21,South,180,15.0,22.0,34,-99.99,,,-99.99,,2013-04-21 19:42:00,
2013-04-21 14:52:00,67.0,37.0,30.21,South,180,15.0,22.0,34,-99.99,,,-99.99,,2013-04-21 19:52:00,
2013-04-21 15:02:00,67.0,37.0,30.20,South,190,16.0,24.0,33,-99.99,,,-99.99,,2013-04-21 20:02:00,
2013-04-21 15:11:00,67.0,37.0,30.19,South,185,17.0,26.0,33,-99.99,,,-99.99,,2013-04-21 20:11:00,
2013-04-21 15:22:00,67.0,37.0,30.19,South,185,17.0,26.0,33,-99.99,,,-99.99,,2013-04-21 20:22:00,
2013-04-21 15:32:00,67.0,38.0,30.18,SSE,165,14.0,23.0,34,-99.99,,,-99.99,,2013-04-21 20:32:00,
2013-04-21 15:42:00,69.0,40.0,30.18,South,180,10.0,22.0,35,-99.99,,,-99.99,,2013-04-21 20:42:00,
2013-04-21 15:52:00,69.0,40.0,30.18,South,180,10.0,22.0,35,-99.99,,,-99.99,,2013-04-21 20:52:00,
2013-04-21 16:02:00,69.0,38.0,30.17,South,185,12.0,23.0,33,-99.99,,,-99.99,,2013-04-21 21:02:00,
2013-04-21 16:12:00,68.0,36.0,30.16,SW,215,19.0,26.0,31,-99.99,,,-99.99,,2013-04-21 21:12:00,
2013-04-21 16:21:00,68.0,36.0,30.16,SW,215,19.0,26.0,31,-99.99,,,-99.99,,2013-04-21 21:21:00,
2013-04-21 16:33:00,68.0,37.0,30.15,South,185,16.0,21.0,32,-99.99,,,-99.99,,2013-04-21 21:33:00,
2013-04-21 16:43:00,69.0,38.0,30.15,SSW,195,13.0,22.0,32,-99.99,,,-99.99,,2013-04-21 21:43:00,
2013-04-21 16:53:00,69.0,38.0,30.15,SSW,195,13.0,22.0,32,-99.99,,,-99.99,,2013-04-21 21:53:00,
2013-04-21 17:02:00,68.0,36.0,30.15,SSW,195,14.0,20.0,31,-99.99,,,-99.99,,2013-04-21 22:02:00,
2013-04-21 17:12:00,67.0,35.0,30.14,SW,220,15.0,20.0,30,-99.99,,,-99.99,,2013-04-21 22:12:00,
2013-04-21 17:22:00,67.0,35.0,30.14,SW,220,15.0,20.0,30,-99.99,,,-99.99,,2013-04-21 22:22:00,
2013-04-21 17:33:00,68.0,37.0,30.14,South,190,17.0,21.0,31,-99.99,,,-99.99,,2013-04-21 22:33:00,
2013-04-21 17:43:00,69.0,37.0,30.14,South,185,12.0,21.0,31,-99.99,,,-99.99,,2013-04-21 22:43:00,
2013-04-21 17:52:00,69.0,37.0,30.14,South,185,12.0,21.0,31,-99.99,,,-99.99,,2013-04-21 22:52:00,
2013-04-21 18:02:00,67.0,35.0,30.14,South,185,14.0,23.0,30,-99.99,,,-99.99,,2013-04-21 23:02:00,
2013-04-21 18:12:00,67.0,38.0,30.14,SSW,195,10.0,19.0,35,-99.99,,,-99.99,,2013-04-21 23:12:00,
2013-04-21 18:22:00,67.0,38.0,30.14,SSW,195,10.0,19.0,35,-99.99,,,-99.99,,2013-04-21 23:22:00,
2013-04-21 18:32:00,68.0,36.0,30.13,South,170,14.0,19.0,31,-99.99,,,-99.99,,2013-04-21 23:32:00,
2013-04-21 18:42:00,68.0,37.0,30.13,SSW,195,12.0,19.0,32,-99.99,,,-99.99,,2013-04-21 23:42:00,
2013-04-21 18:52:00,68.0,37.0,30.13,SSW,195,12.0,19.0,32,-99.99,,,-99.99,,2013-04-21 23:52:00,
2013-04-21 19:01:00,67.0,35.0,30.13,SSW,205,13.0,19.0,30,-99.99,,,-99.99,,2013-04-22 00:01:00,
2013-04-21 19:11:00,67.0,35.0,30.13,South,190,14.0,21.0,31,-99.99,,,-99.99,,2013-04-22 00:11:00,
2013-04-21 19:22:00,67.0,35.0,30.13,South,190,14.0,21.0,31,-99.99,,,-99.99,,2013-04-22 00:22:00,
2013-04-21 19:32:00,66.0,34.0,30.13,SSW,205,12.0,17.0,30,-99.99,,,-99.99,,2013-04-22 00:32:00,
2013-04-21 19:42:00,65.0,37.0,30.14,South,180,10.0,15.0,35,-99.99,,,-99.99,,2013-04-22 00:42:00,
2013-04-21 19:51:00,65.0,37.0,30.14,South,180,10.0,15.0,35,-99.99,,,-99.99,,2013-04-22 00:51:00,
2013-04-21 20:01:00,64.0,37.0,30.15,South,180,13.0,17.0,36,-99.99,,,-99.99,,2013-04-22 01:01:00,
2013-04-21 20:12:00,64.0,37.0,30.15,South,180,13.0,17.0,36,-99.99,,,-99.99,,2013-04-22 01:12:00,
2013-04-21 20:21:00,64.0,37.0,30.15,South,180,13.0,17.0,36,-99.99,,,-99.99,,2013-04-22 01:21:00,
2013-04-21 20:32:00,63.0,36.0,30.16,South,175,10.0,16.0,37,-99.99,,,-99.99,,2013-04-22 01:32:00,
2013-04-21 20:42:00,63.0,37.0,30.16,South,175,8.0,13.0,38,-99.99,,,-99.99,,2013-04-22 01:42:00,
2013-04-21 20:52:00,63.0,37.0,30.16,South,175,8.0,13.0,38,-99.99,,,-99.99,,2013-04-22 01:52:00,
2013-04-21 21:02:00,62.0,37.0,30.17,South,175,8.0,13.0,39,-99.99,,,-99.99,,2013-04-22 02:02:00,
2013-04-21 21:11:00,62.0,37.0,30.17,South,180,8.0,13.0,39,-99.99,,,-99.99,,2013-04-22 02:11:00,
2013-04-21 21:21:00,62.0,37.0,30.17,South,180,8.0,13.0,39,-99.99,,,-99.99,,2013-04-22 02:21:00,
2013-04-21 21:32:00,62.0,37.0,30.18,South,170,10.0,13.0,40,-99.99,,,-99.99,,2013-04-22 02:32:00,
2013-04-21 21:42:00,62.0,37.0,30.18,South,170,10.0,14.0,40,-99.99,,,-99.99,,2013-04-22 02:42:00,
2013-04-21 21:52:00,62.0,37.0,30.18,South,170,10.0,14.0,40,-99.99,,,-99.99,,2013-04-22 02:52:00,
2013-04-21 22:02:00,61.0,37.0,30.18,SSE,165,11.0,17.0,41,-99.99,,,-99.99,,2013-04-22 03:02:00,
2013-04-21 22:11:00,61.0,37.0,30.18,South,170,11.0,17.0,41,-99.99,,,-99.99,,2013-04-22 03:11:00,
2013-04-21 22:22:00,61.0,37.0,30.18,South,170,11.0,17.0,41,-99.99,,,-99.99,,2013-04-22 03:22:00,
2013-04-21 22:33:00,60.0,37.0,30.18,South,175,12.0,15.0,42,-99.99,,,-99.99,,2013-04-22 03:33:00,
2013-04-21 22:43:00,60.0,37.0,30.18,South,175,11.0,16.0,43,-99.99,,,-99.99,,2013-04-22 03:43:00,
2013-04-21 22:52:00,60.0,37.0,30.18,South,175,11.0,16.0,43,-99.99,,,-99.99,,2013-04-22 03:52:00,
2013-04-21 23:03:00,59.0,37.0,30.19,South,170,10.0,17.0,44,-99.99,,,-99.99,,2013-04-22 04:03:00,
2013-04-21 23:12:00,59.0,37.0,30.18,South,175,10.0,15.0,44,-99.99,,,-99.99,,2013-04-22 04:12:00,
2013-04-21 23:23:00,59.0,37.0,30.18,South,175,10.0,15.0,44,-99.99,,,-99.99,,2013-04-22 04:23:00,
2013-04-21 23:33:00,58.0,37.0,30.19,South,180,10.0,14.0,45,-99.99,,,-99.99,,2013-04-22 04:33:00,
2013-04-21 23:43:00,58.0,37.0,30.19,South,175,11.0,15.0,45,-99.99,,,-99.99,,2013-04-22 04:43:00,
2013-04-21 23:52:00,58.0,37.0,30.19,South,175,11.0,15.0,45,-99.99,,,-99.99,,2013-04-22 04:52:00,